RH
18 18 17 17 18 20 28 37 41 42 40 35 30 26 22 21 20 19 18 14 8 6 6 6 12 69 91
12 14 16 16 17 19 19 25 32 37 39 38 34 30 26 23 21 19 19 19 14 7 7 6 4 11 86
6 6 6 6 6 8 10 14 17 23 28 35 35 32 27 25 22 20 19 19 18 12 6 7 5 9 81
8 7 7 7 7 6 5 5 4 5 9 15 23 32 30 25 22 20 18 18 19 18 9 7 6 8 89
10 11 11 11 13 12 10 8 7 6 4 4 4 8 20 28 25 21 18 17 18 19 16 7 8 8 44
19 18 19 18 17 16 14 13 10 11 10 7 6 4 4 11 22 24 21 17 16 19 18 10 10 11 59
22 24 22 23 21 21 20 19 17 16 14 10 10 7 7 5 5 16 22 20 16 16 19 17 8 12 42
29 28 28 27 26 25 24 23 22 22 22 16 16 13 10 10 8 5 12 21 19 16 18 19 11 14 36
32 32 30 28 24 20 18 17 17 19 23 23 22 18 16 14 13 9 5 17 21 18 16 18 17 9 16
34 29 23 19 20 24 24 24 22 16 20 20 24 23 19 18 16 13 10 6 18 19 15 18 18 13 16
31 24 22 28 39 44 44 42 38 32 30 24 24 28 27 20 21 22 17 10 7 18 16 14 16 17 11
32 25 34 42 48 51 53 54 53 50 39 42 34 37 34 28 22 22 27 19 9 7 16 13 13 17 14
34 35 50 56 57 57 60 63 63 56 51 48 45 43 42 36 28 26 24 28 17 8 8 16 12 14 15
37 40 55 61 61 62 60 63 63 57 58 56 55 51 46 46 42 30 30 30 25 13 7 9 14 11 14
38 44 62 66 63 63 62 61 62 63 56 60 64 56 51 48 47 48 41 38 34 16 8 7 10 12 11
38 40 56 67 66 64 64 63 65 65 62 61 64 58 53 49 52 50 58 50 46 27 11 8 7 10 11
44 41 53 69 73 69 67 66 68 68 64 64 68 66 57 47 52 59 59 63 56 42 25 14 9 8 10
Wind_Speed
40 40 41 42 42 41 38 36 36 37 36 35 33 32 32 32 30 27 25 20 18 17 18 19 21 23 16
38 39 40 40 40 41 42 40 38 37 38 38 37 34 32 33 32 30 27 24 21 18 19 19 18 22 21
37 33 34 36 36 37 39 41 40 38 38 39 40 38 35 34 34 32 30 27 24 21 20 19 18 19 18
38 32 31 30 33 33 32 32 35 37 41 41 38 39 39 38 36 36 32 29 26 23 21 21 20 19 23
33 34 29 29 32 33 33 32 31 31 34 33 35 38 40 43 42 37 37 33 29 26 23 23 24 22 28
34 34 33 32 32 33 34 33 33 32 32 31 33 30 35 41 44 41 39 39 33 28 25 24 25 24 29
34 33 34 33 33 32 33 34 33 31 35 31 32 32 31 31 37 44 43 41 38 32 28 27 27 28 28
34 33 33 33 33 33 33 34 33 32 35 37 33 34 32 30 32 37 45 42 41 37 31 29 29 29 31
31 32 32 32 31 33 31 34 33 31 29 35 31 35 34 31 32 34 35 42 40 38 35 31 32 30 31
30 30 30 29 28 28 29 30 32 32 24 31 30 32 33 32 34 34 32 37 42 39 38 34 34 33 31
29 29 28 27 26 24 24 27 28 29 23 29 29 28 31 33 32 32 32 31 38 42 38 37 35 35 31
29 28 27 26 27 27 26 27 28 28 23 25 28 28 29 31 32 32 32 31 32 40 42 38 37 36 34
28 28 27 27 27 26 25 26 26 26 25 24 26 25 28 30 29 31 33 31 32 35 40 43 40 38 35
28 28 27 28 28 27 29 28 30 28 27 25 26 25 27 28 29 28 30 32 31 33 35 43 43 41 38
28 29 28 28 28 27 29 30 31 29 25 24 27 26 27 29 28 26 28 29 30 32 34 38 45 45 41
27 27 26 26 26 26 27 28 28 27 25 24 26 27 27 28 28 24 26 28 28 33 33 37 41 47 46
28 27 26 26 26 26 26 26 27 26 24 24 26 26 28 29 22 25 26 26 28 32 35 36 38 41 49
Wind_Direction
284 281 279 277 276 274 273 271 270 271 271 271 268 267 269 272 274 276 279 277 268 261 256 254 245 244 250
284 281 280 277 276 274 272 270 270 268 266 266 266 266 267 267 270 273 275 276 271 261 256 255 249 236 229
290 287 284 283 279 275 272 271 270 269 267 262 259 261 261 263 264 265 268 270 269 263 253 250 247 229 220
290 287 284 283 283 281 275 275 273 271 267 265 263 257 257 257 258 260 261 263 265 261 253 246 241 227 209
288 288 287 284 283 282 280 278 274 272 272 270 265 263 255 252 253 256 258 257 257 258 251 243 241 226 208
286 287 288 286 284 283 282 278 274 275 271 270 270 261 259 252 249 250 254 253 253 253 248 239 237 228 207
287 288 288 287 284 283 282 282 280 277 276 270 267 266 262 260 252 246 247 250 248 248 247 238 232 229 211
286 287 286 286 286 285 283 282 280 281 278 273 268 266 262 260 258 249 243 245 247 243 242 239 232 230 219
284 285 285 286 287 285 285 282 282 279 277 278 273 267 260 258 256 256 248 242 242 242 237 234 231 231 222
286 287 288 288 287 287 287 286 286 284 281 277 273 269 263 254 256 255 250 242 237 238 235 231 228 229 224
288 288 289 287 286 284 283 283 286 287 290 279 275 270 267 259 250 255 253 247 239 236 234 229 226 227 223
291 289 287 285 282 282 282 281 281 285 286 281 279 275 270 263 256 247 250 246 241 235 232 227 225 224 222
291 289 287 284 282 282 280 280 280 283 284 280 279 278 275 272 262 252 248 244 241 238 232 226 224 221 222
290 288 285 282 281 282 281 280 277 276 277 280 280 279 275 271 269 258 250 245 239 239 236 226 224 222 219
288 286 283 280 280 279 277 277 277 278 276 270 271 271 272 271 268 264 255 247 241 235 238 229 222 222 221
291 288 285 279 279 277 277 277 277 276 275 271 269 267 265 265 270 265 258 252 240 236 234 234 222 222 222
294 291 288 282 278 278 277 275 275 276 275 269 265 266 265 265 262 262 259 253 245 235 234 234 227 221 222